Weather Roundup
Issued by NWS Chicago, IL

Home | Current Version | Previous Version | Graphics & Text | Print | Product List | Glossary On
Versions: 1 2 3 4 5 6 7 8 9 10 11 12 13 14 15 16 17 18 19 20 21 22 23 24 25 26 27 28 29 30 31 32 33 34 35 36 37 38 39 40 41 42 43 44 45 46 47 48 49 50
000
NZUS59 KLOT 040203
HRRLOT

CHICAGO AREA WEATHER ROUNDUP
NATIONAL WEATHER SERVICE CHICAGO/ROMEOVILLE IL
800 PM CST SAT DEC 03 2016

NOTE: "FAIR" INDICATES FEW OR NO CLOUDS BELOW 12,000 FEET WITH NO
SIGNIFICANT WEATHER AND/OR OBSTRUCTIONS TO VISIBILITY.

* THESE STATIONS ARE NOT UNDER NWS QUALITY CONTROL. THEY ALSO MAY NOT
  REPORT WEATHER SUCH AS PRECIPITATION OR FOG.

ILZ005-006-012>014-019>023-040300-
NORTHEAST ILLINOIS

CITY           SKY/WX    TMP DP  RH WIND       PRES   REMARKS
OHARE          CLOUDY    32  24  72 SW3       30.30R
MIDWAY         MOCLDY    32  23  69 S3        30.31S
AURORA         CLOUDY    31  26  82 SE5       30.29F WCI  26
LANSING*       CLOUDY    28  27  95 CALM      30.31S
WAUKEGAN       CLOUDY    31  25  78 CALM      30.29S
DUPAGE AIRPORT PTCLDY    31  24  75 SE3       30.28F
WHEELING       MOCLDY    29  24  82 CALM      30.31S
KANKAKEE*      CLOUDY    30  26  85 CALM      30.32S
MORRIS*        CLOUDY    30  27  87 CALM      30.29F
NORTHERLY ISL    N/A     33  24  70 S5          N/A  WCI  29
$$

WIZ051-052-058>065-066-070>072-040300-
SOUTHEAST WISCONSIN

CITY           SKY/WX    TMP DP  RH WIND       PRES   REMARKS
MILWAUKEE      CLOUDY    32  22  66 SW5       30.29S WCI  27
KENOSHA*       CLOUDY    31  25  78 CALM      30.29S
RACINE*        CLOUDY    32  23  69 CALM      30.31S
BURLINGTON     CLOUDY    31  26  80 CALM      30.28S
WAUKESHA       CLOUDY    28  21  74 CALM      30.29S
WEST BEND      CLOUDY    30  25  80 CALM      30.28R
$$

INZ001>003-010>013-019-020-040300-
NORTHWEST INDIANA

CITY           SKY/WX    TMP DP  RH WIND       PRES   REMARKS
GARY*          NOT AVBL
MICHIGAN CITY* NOT AVBL
RENSSELAER*    NOT AVBL
VALPARAISO     CLOUDY    33  24  69 CALM      30.30F
$$

LMZ740>746-040300-
SOUTHERN LAKE MICHIGAN

STATION/POSITION TIME  SKY/WX   TEMP WIND        PRES    VSBY
                                AIR  DIR/SP/G
                 (UTC)          (F)  (DEG/KT/KT) (MB)    (MI)
HARRISON CRIB    0140            35  230/  1/  2   N/A
BURNHAM HARBOR   0200            32  180/  3/  7   N/A
CALUMET HARBOR   0130            32  180/  2/  3 1025.5F
BURNS HARBOR     0104            34  210/  6/  8 1026.8
MICHIGAN CITY    0140            34  170/  9/ 10   N/A
$$

ABBREVIATIONS USED IN REMARKS
   TC - TEMPERATURE IN CELSIUS
  WCI - WIND CHILL INDEX
   HX - HEAT INDEX
  VSB - VISIBILITY
$$



USA.gov is the U.S. government's official web portal to all federal, state and local government web resources and services.